Home   Weather   Almería   Past weeks

Flag for Spain Past Weather in Almería, Spain — Yesterday and Last 2 Weeks

Now
47 °F

Cool.


Feels Like: 42 °F
Forecast: 44 / 53 °F
Wind: 10 mph from East

Location: Almeria / Aeropuerto

Current Time: Jan 20, 2017 at 12:58:00 am

Latest Report: Jan 20, 2017 at 12:00 am


Visibility: N/A

Pressure: 29.90 "Hg

Humidity: 69%

Dew Point: 37 °F

Location of AlmeríaLocation

Past Weather in Almería — Graph

°F

Almería Temperature Yesterday

Maximum temperature yesterday: 56 °F (at 5:00 pm)
Minimum temperature yesterday: 45 °F (at 1:00 am)
Average temperature yesterday: 50 °F

High & Low Weather Summary for the Past Weeks

 TemperatureHumidityPressure
High70 °F (Jan 17, 3:00 pm)93% (Jan 13, 4:00 am)30.43 "Hg (Jan 13, 4:00 am)
Low44 °F (Jan 18, 7:00 am)17% (Jan 14, 2:00 pm)29.82 "Hg (Jan 19, 5:00 pm)
Average55 °F60%30.18 "Hg
* Reported Jan 4 11:00 pm — Jan 19 11:00 pm, Almería, Weather by CustomWeather, © 2017

Note: Actual official high and low records may vary slightly from our data, if they occured in-between our weather recording intervals... More about our weather records

Advertising

Almería Weather History for the Previous 24 Hours

Scroll right to see more
 ConditionsComfort  
Time TempWeatherWind HumidityBarometerVisibility
11:00 pm
Thu, Jan 19
48 °FCool.2 mph65%29.90 "HgN/A
10:00 pm48 °FPassing clouds.5 mph64%29.89 "Hg31 mi
9:00 pm47 °FCool.9 mph65%29.87 "HgN/A
8:00 pm50 °FCool.10 mph48%29.86 "HgN/A
7:00 pm51 °FPassing clouds.2 mph45%29.84 "Hg31 mi
6:00 pm53 °FCool.No wind50%29.84 "HgN/A
5:00 pm56 °FRefreshingly cool.3 mph44%29.82 "HgN/A
4:00 pm53 °FOvercast.5 mph49%29.83 "Hg31 mi
3:00 pm53 °FCool.8 mph42%29.83 "HgN/A
2:00 pm53 °FCool.5 mph46%29.84 "HgN/A
1:00 pm53 °FOvercast.8 mph45%29.86 "Hg31 mi
12:00 pm52 °FCool.10 mph49%29.88 "HgN/A
11:00 am53 °FCool.14 mph48%29.87 "HgN/A
10:00 am51 °FOvercast.15 mph52%29.88 "Hg31 mi
9:00 am50 °FCool.13 mph51%29.90 "HgN/A
8:00 am48 °FCool.8 mph57%29.90 "HgN/A
7:00 am48 °FOvercast.12 mph59%29.91 "Hg31 mi
6:00 am48 °FCool.16 mph56%29.90 "HgN/A
5:00 am48 °FCool.18 mph55%29.91 "HgN/A
4:00 am47 °FCool.16 mph56%29.93 "HgN/A
3:00 am48 °FCool.16 mph54%29.93 "HgN/A
2:00 am47 °FCool.17 mph56%29.94 "HgN/A
1:00 am45 °FCool.12 mph63%29.95 "HgN/A
12:00 am47 °FCool.12 mph59%29.99 "HgN/A
Weather by CustomWeather, © 2017

See weather overviewHow to use our weather pages